Iron Mountain, MI

3:51 PM CST on January 17, 2017 (GMT -0600)
Ford

Weather History for KIMT - February, 2013

Change the Weather History Date:

Saturday, February 23, 2013

  Actual Average Record
Temperature  
Mean Temperature 18 °F -  
Max Temperature 30 °F 33 °F 51 °F (1961)
Min Temperature 6 °F 11 °F -20 °F (1967)
Degree Days  
Heating Degree Days 47    
Moisture  
Dew Point 19 °F    
Average Humidity 87    
Maximum Humidity 100    
Minimum Humidity 74    
Precipitation  
Precipitation 0.00 in - - ()
Sea Level Pressure  
Sea Level Pressure 29.76 in    
Wind  
Wind Speed 3 mph (WNW)    
Max Wind Speed 10 mph    
Max Gust Speed -    
Visibility 7 miles    
Events Snow    
Averages and records for this station are not official NWS values.
T = Trace of Precipitation, MM = Missing Value Source: NWS Daily Summary

Daily Weather History Graph

Daily Weather History Graph

Search for Another Location

Airport or City:

Trip Planner

Search our weather history database for the weather conditions in past years. The results will help you decide how hot, cold, wet, or windy it might be!

Date:

Astronomy

Feb. 23, 2013 Rise Set
Actual Time 6:41 AM CST 5:31 PM CST
Civil Twilight 6:11 AM CST 6:01 PM CST
Nautical Twilight 5:36 AM CST 6:35 PM CST
Astronomical Twilight 5:02 AM CST 7:10 PM CST
Moon 3:37 PM CST (2/23) 5:07 AM CST (2/23)
Length of Visible Light 11h 50m
Length of Day
10h 49m
Waxing Gibbous, 95% of the Moon is Illuminated
Feb 23
Waxing Gibbous
Feb 25
Full
Mar 4
Last Quarter
Mar 11
New
Mar 19
First Quarter

Hourly Weather History & Observations

Time (CST) Temp. Windchill Dew Point Humidity Pressure Visibility Wind Dir Wind Speed Gust Speed Precip Events Conditions
12:54 AM 19.0 °F - 17.1 °F 92% 29.78 in 6.0 mi Calm Calm - 0.00 in   Overcast
1:54 AM 17.1 °F - 15.1 °F 92% 29.78 in 4.0 mi Calm Calm - 0.00 in Snow Light Snow
2:06 AM 17.6 °F - 15.8 °F 93% 29.72 in 2.5 mi Calm Calm - 0.00 in Snow Light Snow
2:20 AM 17.6 °F - 15.8 °F 93% 29.72 in 3.0 mi Calm Calm - 0.00 in Snow Light Snow
2:54 AM 19.0 °F 13.9 °F 16.0 °F 88% 29.78 in 4.0 mi WNW 3.5 mph - 0.00 in Snow Light Snow
3:13 AM 19.4 °F 14.3 °F 17.6 °F 93% 29.71 in 2.0 mi WNW 3.5 mph - 0.00 in Snow Light Snow
3:29 AM 19.4 °F 14.3 °F 17.6 °F 93% 29.71 in 2.5 mi NW 3.5 mph - 0.00 in Snow Light Snow
3:34 AM 19.4 °F 12.8 °F 17.6 °F 93% 29.70 in 3.0 mi NW 4.6 mph - 0.00 in Snow Light Snow
3:41 AM 19.4 °F 12.8 °F 17.6 °F 93% 29.71 in 2.5 mi NW 4.6 mph - 0.00 in Snow Light Snow
3:54 AM 19.9 °F 13.4 °F 17.1 °F 89% 29.76 in 2.5 mi NW 4.6 mph - 0.00 in Snow Light Snow
4:08 AM 19.4 °F 12.8 °F 17.6 °F 93% 29.70 in 3.0 mi NW 4.6 mph - 0.00 in Snow Light Snow
4:54 AM 17.1 °F - 16.0 °F 96% 29.76 in 10.0 mi Calm Calm - 0.00 in   Overcast
5:54 AM 14.0 °F - 10.9 °F 88% 29.77 in 10.0 mi Calm Calm - N/A   Mostly Cloudy
6:25 AM 8.6 °F - 6.8 °F 92% 29.70 in 1.5 mi Calm Calm - N/A   Clear
6:37 AM 6.8 °F - 3.2 °F 85% 29.70 in 4.0 mi Calm Calm - N/A   Clear
6:54 AM 9.0 °F - 7.0 °F 92% 29.78 in 10.0 mi Calm Calm - N/A   Clear
7:28 AM 8.6 °F - 6.8 °F 92% 29.71 in 1.8 mi Calm Calm - N/A   Clear
7:39 AM 8.6 °F - 8.6 °F 100% 29.71 in 5.0 mi Calm Calm - N/A   Clear
7:54 AM 12.9 °F - 10.9 °F 92% 29.78 in 10.0 mi Calm Calm - N/A   Clear
8:14 AM 15.8 °F 8.6 °F 14.0 °F 93% 29.71 in 10.0 mi West 4.6 mph - N/A   Mostly Cloudy
8:54 AM 19.9 °F 14.9 °F 17.1 °F 89% 29.78 in 10.0 mi West 3.5 mph - N/A   Overcast
9:54 AM 23.0 °F 18.4 °F 19.0 °F 85% 29.77 in 10.0 mi Variable 3.5 mph - N/A   Overcast
10:54 AM 24.1 °F 17.0 °F 19.9 °F 84% 29.77 in 10.0 mi WSW 5.8 mph - N/A   Overcast
11:54 AM 26.1 °F 20.5 °F 21.0 °F 81% 29.77 in 10.0 mi West 4.6 mph - N/A   Overcast
12:30 PM 28.4 °F 22.2 °F 21.2 °F 74% 29.70 in 8.0 mi Variable 5.8 mph - 0.00 in   Overcast
12:54 PM 28.0 °F 20.0 °F 21.0 °F 75% 29.76 in 10.0 mi WNW 8.1 mph - 0.00 in   Overcast
1:35 PM 28.4 °F 22.2 °F 21.2 °F 74% 29.70 in 10.0 mi NW 5.8 mph - N/A   Overcast
1:54 PM 28.9 °F 25.2 °F 23.0 °F 78% 29.76 in 10.0 mi Variable 3.5 mph - N/A   Overcast
2:01 PM 28.4 °F 22.2 °F 23.0 °F 80% 29.70 in 10.0 mi West 5.8 mph - 0.00 in Snow Light Snow
2:54 PM 28.9 °F 23.9 °F 24.1 °F 82% 29.77 in 9.0 mi WSW 4.6 mph - 0.00 in   Overcast
3:12 PM 30.2 °F - 24.8 °F 80% 29.71 in 2.5 mi Calm Calm - 0.00 in Snow Light Snow
3:21 PM 28.4 °F 24.6 °F 24.8 °F 86% 29.71 in 3.0 mi SW 3.5 mph - 0.00 in Snow Light Snow
3:54 PM 30.0 °F - 25.0 °F 82% 29.77 in 4.0 mi Calm Calm - 0.00 in Snow Light Snow
4:03 PM 30.2 °F - 24.8 °F 80% 29.71 in 3.0 mi Calm Calm - 0.00 in Snow Light Snow
4:28 PM 30.2 °F 21.3 °F 24.8 °F 80% 29.72 in 2.5 mi NW 10.4 mph - 0.00 in Snow Light Snow
4:44 PM 30.2 °F 24.3 °F 26.6 °F 86% 29.72 in 3.0 mi NW 5.8 mph - 0.00 in Snow Light Snow
4:54 PM 28.9 °F 25.2 °F 26.1 °F 89% 29.78 in 4.0 mi NW 3.5 mph - 0.00 in Snow Light Snow
5:18 PM 28.4 °F 23.3 °F 26.6 °F 93% 29.73 in 2.5 mi WNW 4.6 mph - 0.00 in Snow Light Snow
5:26 PM 28.4 °F 21.2 °F 26.6 °F 93% 29.74 in 6.0 mi WNW 6.9 mph - 0.00 in Snow Light Snow
5:54 PM 28.9 °F 19.8 °F 26.1 °F 89% 29.81 in 9.0 mi NW 10.4 mph - 0.00 in   Overcast
6:41 PM 28.4 °F 20.4 °F 24.8 °F 86% 29.76 in 9.0 mi NNW 8.1 mph - 0.00 in   Overcast
6:54 PM 28.9 °F 21.1 °F 24.1 °F 82% 29.83 in 10.0 mi NNW 8.1 mph - 0.00 in   Overcast
7:09 PM 28.4 °F 21.2 °F 24.8 °F 86% 29.77 in 10.0 mi NNW 6.9 mph - N/A   Overcast
7:54 PM 27.0 °F 19.5 °F 21.9 °F 81% 29.84 in 10.0 mi NNW 6.9 mph - N/A   Overcast
8:54 PM 26.1 °F 20.5 °F 21.0 °F 81% 29.86 in 10.0 mi NNW 4.6 mph - N/A   Overcast
9:54 PM 25.0 °F 17.1 °F 21.0 °F 85% 29.86 in 10.0 mi NNW 6.9 mph - N/A   Overcast
10:19 PM 24.8 °F 16.9 °F 21.2 °F 86% 29.80 in 10.0 mi NW 6.9 mph - N/A   Overcast
10:54 PM 26.1 °F 17.6 °F 21.0 °F 81% 29.86 in 10.0 mi NNW 8.1 mph - N/A   Overcast
11:54 PM 26.1 °F 17.6 °F 21.0 °F 81% 29.87 in 10.0 mi NW 8.1 mph - N/A   Overcast